Other Public Products
Issued by NWS Charleston, SC

Current Version | Previous Version | Graphics & Text | Print | Product List | Glossary On
Versions: 1 2 3 4 5 6 7 8 9 10 11 12 13 14 15 16 17 18 19 20 21 22 23 24 25 26 27 28 29 30 31 32 33 34 35 36 37 38 39 40 41 42 43 44 45 46 47 48 49 50
000
FPUS82 KCHS 251127
OPUCHS

TEST...KCHS/KSAV Gateway Observations...TEST
National Weather Service Charleston SC
700 AM EDT WED APR 25 2018

NOTE: "fair" indicates few or no clouds below 12,000 feet with no
significant weather and/or obstructions to visibility.

SCZ050-WAZ558-NCZ071-TXZ119-213-PAZ071-DCZ001-FLZ074-172-MI076-
NYZ176-178-MAZ016-IL014-TNZ027-NJZ106-GAZ044-MD014-251200-

...Gateway Observations for Charleston International...

CITY           SKY/WX    TMP DP  RH WIND       PRES   REMARKS
Chas Airport   FAIR      60  56  86 W6        29.82R
Seattle        PTCLDY    55  37  50 N10       30.07S
Charlotte      MOCLDY    57  57 100 W3        29.78R
Dallas DFW     CLOUDY    65  57  75 N10       30.03F
Dallas Love    CLOUDY    66  57  72 NE7       30.04F
Philladelphia  DRIZZLE   55  55 100 E12       29.86S FOG
Wash National  DRIZZLE   57  55  93 N8        29.80S FOG
Baltimore      CLOUDY    56  56 100 NE8       29.80S FOG
Miami          FAIR      69  62  78 NW5       29.98R
Detroit        LGT RAIN  52  49  89 N6        29.91R FOG
Newark         RAIN      55  55 100 E8G16     29.94F FOG
Laguardia      RAIN      51  49  92 NE16      29.96F VSB 1/2
J F K          LGT RAIN  54  54 100 E21       29.95F FOG
Boston Logan   LGT RAIN  47  45  93 NE5       30.14S
Ft. Lauderdale FAIR      69  62  78 W6        29.97R
Chicago O`Hare MOCLDY    43  31  62 N16       30.08R
Chicago Midway MOCLDY    43  33  68 N13G24    30.07R
Houston Bush   FAIR      62  61  96 CALM      30.04F
Houston Hobby  FAIR      63  62  97 CALM      30.04S
Nashville      CLOUDY    57  52  83 NW10      29.97R
Atlanta        FAIR      54  54 100 W7        29.90R

$$

GAZ044-118-TXZ119-213-NCZ071-DCZ001-MDZ014-506-PAZ021-071-NJZ106-
NYZ176-178-MAZ106-OHZ011-021-055-MIZ076-KYZ091-ILZ014-INZ047-
MNZ060-ONZ431-251200-

...Gateway Observations for Savannah International...

CITY           SKY/WX    TMP DP  RH WIND       PRES   REMARKS
Savannah Arpt  FAIR      58  55  90 W7        29.87R
Atlanta        FAIR      54  54 100 W7        29.90R
Charlotte      MOCLDY    57  57 100 W3        29.78R
Dallas DFW     CLOUDY    65  57  75 N10       30.03F
Houston Bush   FAIR      62  61  96 CALM      30.04F
Wash National  DRIZZLE   57  55  93 N8        29.80S FOG
Wash Dulles    DRIZZLE   53  53 100 N6        29.81S FOG
Baltimore      CLOUDY    56  56 100 NE8       29.80S FOG
Philadelphia   DRIZZLE   55  55 100 E12       29.86S FOG
Newark         RAIN      55  55 100 E8G16     29.94F FOG
Laguardia      RAIN      51  49  92 NE16      29.96F VSB 1/2
J F K          LGT RAIN  54  54 100 E21       29.95F FOG
Boston         LGT RAIN  47  45  93 NE5       30.14S
Pittsburg      CLOUDY    51  49  92 NE3       29.83F
Akron          CLOUDY    51  48  89 NE5       29.85S FOG
Cleveland      LGT RAIN  51  50  96 N5        29.88S VSB 1
Cincinnati     CLOUDY    53  50  89 N12       29.90R
Columbus       CLOUDY    52  52 100 NW7       29.86R FOG
Detroit        LGT RAIN  52  49  89 N6        29.91R FOG
Chicago O`Hare MOCLDY    43  31  62 N16       30.08R
Minneapolis    FAIR      36  25  64 N8        30.26R WCI  30
Indianapolis   CLOUDY    50  49  96 N8        29.95R FOG
Toronto Canada LGT RAIN  48  46  93 E9        29.91S FOG

$$




USA.gov is the U.S. government's official web portal to all federal, state and local government web resources and services.